Flag for U.S.A. Weather past 2 weeks in Leawood, Kansas, U.S.A.

Now
85 °F

Sunny.


Feels Like: 92 °F
Forecast: 71 / 86 °F
Wind: 7 mph from Southeast

Location: Johnson County Executive Airport

Current Time: Aug 3, 2015 at 8:27:26 PM

Latest Report: Aug 3, 2015 at 7:53 PM


Visibility: 10 mi

Pressure: 29.85 "Hg

Humidity: 70%

Dew point: 74 °F

Location of LeawoodLocation

Historic Weather in Leawood — Graph

°F

Leawood temperature yesterday

Maximum temperature yesterday: 92 °F (at 4:53 PM)
Minimum temperature yesterday: 69 °F (at 5:53 AM)
Average temperature yesterday: 81 °F

Past Weeks' High & Low Weather Summary

 TemperatureHumidityPressure
High94 °F (Jul 24, 4:53 PM)100% (Jul 20, 4:53 AM)30.20 "Hg (Jul 20, 4:53 AM)
Low63 °F (Jul 22, 4:53 AM)35% (Jul 30, 12:53 PM)29.80 "Hg (Aug 2, 6:53 PM)
Average79 °F74%29.93 "Hg
* Reported Jul 19 6:53 PM — Aug 3 6:53 PM, Leawood, Weather by CustomWeather, © 2015

Note: Actual official high and low records may vary slightly from our data, if they occured in-between our weather recording intervals... More about our weather records

Advertising

Leawood weather history for previous 24 hours

 ConditionsComfort  
Time TempWeatherWind HumidityBarometerVisibility
6:53 PM
Mon, Aug 3
90 °FSunny.No wind47%29.85 "Hg10 mi
5:53 PM91 °FSunny.6 mph45%29.85 "Hg10 mi
4:53 PM91 °FSunny.6 mph56%29.86 "Hg10 mi
3:53 PM92 °FScattered clouds.No wind46%29.88 "Hg10 mi
2:53 PM92 °FSunny.8 mph44%29.88 "Hg10 mi
1:53 PM91 °FSunny.7 mph45%29.89 "Hg10 mi
12:53 PM89 °FSunny.9 mph50%29.91 "Hg10 mi
11:53 AM86 °FSunny.6 mph57%29.89 "Hg10 mi
10:53 AM83 °FSunny.No wind63%29.92 "Hg10 mi
9:53 AM80 °FSunny.3 mph67%29.91 "Hg10 mi
8:53 AM77 °FSunny.No wind71%29.93 "Hg10 mi
7:53 AM73 °FSunny.3 mph81%29.89 "Hg10 mi
6:53 AM69 °FClear.3 mph90%29.88 "Hg10 mi
5:53 AM71 °FClear.No wind81%29.88 "Hg10 mi
4:53 AM71 °FClear.9 mph84%29.88 "Hg10 mi
3:53 AM73 °FClear.3 mph76%29.88 "Hg10 mi
2:53 AM74 °FClear.No wind74%29.86 "Hg10 mi
1:53 AM74 °FClear.6 mph74%29.87 "Hg10 mi
12:53 AM76 °FClear.5 mph69%29.87 "Hg10 mi
11:53 PM
Sun, Aug 2
79 °FClear.8 mph62%29.85 "Hg10 mi
10:53 PM79 °FClear.8 mph69%29.84 "Hg10 mi
9:53 PM79 °FClear.6 mph74%29.82 "Hg10 mi
8:53 PM83 °FSunny.3 mph65%29.82 "Hg10 mi
Weather by CustomWeather, © 2015

See weather overviewHow to use our weather pages